Regional Weather Roundup
Issued by NWS Northern Indiana

Home | Current Version | Previous Version | Text Only | Print | Product List | Glossary Off
Versions: 1 2 3 4 5 6 7 8 9 10 11 12 13 14 15 16 17 18 19 20 21 22 23 24 25 26 27 28 29 30 31 32 33 34 35 36 37 38 39 40 41 42 43 44 45 46 47 48 49 50

000
ASUS43 KIWX 200910
RWRIWX

KIWX WEATHER ROUNDUP
NATIONAL WEATHER SERVICE NORTHERN INDIANA
400 AM EST MON NOV 20 2017

NOTE: "FAIR" INDICATES FEW OR NO CLOUDS BELOW 12,000 FEET WITH NO
SIGNIFICANT WEATHER AND/OR OBSTRUCTIONS TO VISIBILITY.

* THESE STATIONS ARE NOT UNDER NWS QUALITY CONTROL. THEY ALSO MAY NOT
  REPORT WEATHER SUCH AS PRECIPITATION OR FOG.

INZ001>027-201000-
NORTHERN INDIANA

CITY           SKY/WX    TMP DP  RH WIND       PRES   REMARKS
GARY*          CLEAR     33  22  63 SW7       30.04F WCI  27
VALPARAISO     CLEAR     29  22  75 SW9       30.05F WCI  20
MICHIGAN CITY* CLEAR     32  21  64 S9        30.04S WCI  24
LAPORTE*       MOCLDY    27  22  82 S6        30.05F WCI  21
KNOX*          CLEAR     28  23  80 S8        30.06F WCI  20
SOUTH BEND     CLEAR     25  22  88 SW9       30.05F WCI  15
GOSHEN         CLEAR     27  20  75 SW9       30.06S WCI  18
MONTICELLO*    CLOUDY    28  22  79 S8        30.09F WCI  20
LOGANSPORT*    CLEAR     28  23  80 S9        30.11F WCI  20
ROCHESTER*     CLEAR     30  27  86 SW9       30.08F WCI  22
WARSAW*        CLEAR     28  21  74 SW3       30.07F
AUBURN*        CLEAR     28  21  74 S6        30.08F WCI  22
FORT WAYNE     PTCLDY    28  24  85 SW10      30.10S WCI  19
HUNTINGTON*    CLEAR     28  23  83 SW7       30.10F WCI  20
PERU/GRISSOM   CLEAR     27  23  85 SW7       30.09F WCI  20
MARION*        CLEAR     26  23  89 S7        30.13S WCI  18

$$
INZ028>050-201000-
CENTRAL INDIANA

CITY           SKY/WX    TMP DP  RH WIND       PRES   REMARKS
LAFAYETTE      CLOUDY    28  23  81 S5        30.11F WCI  23
KOKOMO*        CLEAR     28  23  81 SW7       30.12S WCI  21
MUNCIE*        CLOUDY    28  21  75 SW5       30.13S WCI  23
INDIANAPOLIS   CLOUDY    25  20  81 S6        30.15F WCI  18

$$
MIZ043>046-050>051-056>058-064>065-071>073-077>080-201000-
SOUTHWEST LOWER MICHIGAN

CITY           SKY/WX    TMP DP  RH WIND       PRES   REMARKS
BATTLE CREEK   CLEAR     27  23  85 S12       30.01F WCI  17
BENTON HARBOR  CLEAR     30  22  72 S7        30.01F WCI  23
COLDWATER*     CLEAR     28  22  78 SW8       30.04S WCI  19
HILLSDALE*     CLEAR     28  23  80 SW5       30.02S WCI  23
HOLLAND        CLEAR     39  30  70 SW13      29.97F
GRAND RAPIDS   MOCLDY    32  29  88 S9        29.97S WCI  24
KALAMAZOO      CLEAR     28  20  71 SW13      30.01F WCI  17
STURGIS*       CLEAR     25  21  86 S7        30.04S WCI  17
THREE RIVERS*  FAIR      28  23  79 SW8       30.04F WCI  20

$$
OHZ001>008-015>018-024>025-201000-
NORTHWEST OHIO

CITY           SKY/WX    TMP DP  RH WIND       PRES   REMARKS
WAUSEON*       FAIR      28  25  86 SW10      30.06S WCI  19
DEFIANCE       CLEAR     28  20  71 SW7       30.09S WCI  21
FINDLAY        CLEAR     29  21  72 SW9       30.09F WCI  20
TOLEDO EXPRESS PTCLDY    30  23  75 SW14      30.07S WCI  19
TOLEDO METCALF CLEAR     29  23  78 SW12      30.09S WCI  19
LIMA           CLEAR     26  23  88 SW9       30.11S WCI  17

$$
AND FOR LAKE MICHIGAN COASTAL AND OPEN LAKE BUOY OBSERVATIONS

STATION/POSITION TEMP    WIND        PRES    VSBY  WAVE
                 AIR SEA DIR/SP/G                  HT/PER
                 (F)     (DEG/KT/KT) (MB)    (MI)  (FT/S)
CALUMET HARBOR    33     210/  9/ 13 1016.0S
MICHIGAN CITY     34     200/ 16/ 19   N/A
BURNS HARBOR      32     210/  9/ 14 1017.3F
SAINT JOSEPH      31     170/  5/ 10 1016.6F
SOUTH LAKE BUOY   41 49  270/ 23/ 27 1014.5F         6/ 6

$$
&&



USA.gov is the U.S. government's official web portal to all federal, state and local government web resources and services.